PDT,Max TemperatureF,Mean TemperatureF,Min TemperatureF,Max Dew PointF,MeanDew PointF,Min DewpointF,Max Humidity, Mean Humidity, Min Humidity, Max Sea Level PressureIn, Mean Sea Level PressureIn, Min Sea Level PressureIn, Max VisibilityMiles, Mean VisibilityMiles, Min VisibilityMiles, Max Wind SpeedMPH, Mean Wind SpeedMPH, Max Gust SpeedMPH,PrecipitationIn, CloudCover, Events, WindDirDegrees
2013-3-1,59,44,28,40,34,28,100,81,44,30.59,30.49,30.40,10,7,0,8,2,12,0.00,3,Fog,231
2013-3-2,57,43,28,40,33,26,100,74,47,30.39,30.27,30.18,10,8,1,12,3,14,0.02,3,Rain,346
2013-3-3,57,44,30,40,34,26,89,66,33,30.19,30.14,30.07,10,10,10,16,5,21,0.04,3,Rain,17
2013-3-4,62,43,24,38,30,21,88,65,32,30.19,30.08,29.94,10,10,10,21,6,25,0.00,1,,169
2013-3-5,49,43,37,38,30,21,79,58,34,29.92,29.80,29.66,10,10,10,29,15,36,0.01,6,Rain,164
2013-3-6,48,37,26,34,30,23,100,75,42,30.02,29.79,29.57,10,10,7,26,10,32,0.05,6,Rain,201
2013-3-7,50,35,19,30,22,15,92,65,26,30.07,30.02,29.96,10,10,10,10,3,14,0.00,1,,321
2013-3-8,55,36,17,26,20,13,92,57,21,30.19,30.04,29.95,10,10,10,18,5,23,0.00,0,,357
2013-3-9,60,40,20,27,19,9,84,50,14,30.51,30.40,30.21,10,10,10,14,4,16,0.00,0,,20
2013-3-10,62,41,19,26,21,14,77,48,21,30.59,30.48,30.40,10,10,10,13,3,14,0.00,0,,22
2013-3-11,68,48,27,35,29,22,78,53,26,30.44,30.34,30.22,10,10,10,16,4,20,0.00,0,,11
2013-3-12,69,49,28,36,31,25,92,55,18,30.30,30.23,30.15,10,10,10,13,3,13,0.00,0,,60
2013-3-13,69,51,33,40,34,28,82,60,32,30.30,30.23,30.16,,,,9,2,10,0.00,0,,25
2013-3-14,69,54,39,38,34,29,79,52,26,30.23,30.18,30.14,,,,14,5,16,0.00,0,,17
2013-3-15,68,52,35,35,32,30,82,53,26,30.27,30.21,30.14,,,,20,5,22,0.00,0,,33
2013-3-16,64,46,28,37,31,24,85,61,24,30.22,30.17,30.08,,,,30,8,36,0.00,2,,304
2013-3-17,57,43,29,30,26,23,82,53,30,30.28,30.21,30.15,,,,20,8,23,0.00,0,,3
2013-3-18,60,40,20,30,23,14,81,50,16,30.27,30.17,30.08,,,,9,2,15,0.00,1,,35
2013-3-19,61,51,40,42,35,29,82,56,37,30.11,30.02,29.89,10,10,10,31,13,47,0.02,7,,146
2013-3-20,61,47,32,41,35,24,82,60,44,30.18,29.94,29.84,10,10,7,31,17,38,0.06,5,Rain,234
2013-3-21,49,37,25,27,21,15,81,55,28,30.33,30.28,30.20,10,10,10,21,9,28,0.00,2,,15
2013-3-22,47,34,20,24,18,16,88,54,28,30.36,30.32,30.28,10,10,10,24,11,29,0.00,1,,4
2013-3-23,58,37,15,20,15,5,77,48,14,30.36,30.28,30.18,10,10,10,23,4,25,0.00,1,,10
2013-3-24,61,44,26,31,24,17,68,48,29,30.22,30.14,30.03,10,10,10,12,3,23,0.00,0,,69
2013-3-25,66,47,28,42,32,23,89,59,27,30.05,29.97,29.85,10,10,8,24,6,33,0.14,3,Rain,224
2013-3-26,58,50,42,43,39,37,89,73,47,30.01,29.97,29.94,10,10,10,13,4,15,0.02,7,Rain,357
2013-3-27,63,51,38,43,39,35,100,70,39,29.99,29.94,29.90,10,10,2,25,8,29,T,5,Rain,137
2013-3-28,62,51,39,42,38,35,92,68,39,30.16,30.05,29.98,10,10,10,21,7,25,0.00,3,,50
2013-3-29,70,52,34,40,36,33,92,60,26,30.25,30.18,30.10,10,10,10,10,3,12,0.00,1,,21
2013-3-30,75,53,31,48,38,30,89,57,23,30.19,30.09,29.98,10,10,3,29,2,35,0.06,2,Rain-Thunderstorm,105
2013-3-31,57,53,48,47,45,43,86,78,61,30.11,30.04,29.97,10,9,4,15,4,21,0.36,7,Rain,202